Regional Weather Roundup
Issued by NWS

Home | Current Version | Previous Version | Text Only | Print | Product List | Glossary On
Versions: 1 2 3 4 5 6 7 8 9 10 11 12 13 14 15 16 17 18 19 20 21 22 23 24 25 26 27 28 29 30 31 32 33 34 35 36 37 38 39 40 41 42 43 44 45 46 47 48 49 50
000
ASUS43 KTOP 250859
RWRKS

WEATHER ROUNDUP FOR KANSAS
NATIONAL WEATHER SERVICE GOODLAND KS
300 AM CST SAT FEB 25 2017

NOTE:  "FAIR" INDICATES FEW OR NO CLOUDS BELOW 12,000 FEET WITH NO
SIGNIFICANT WEATHER AND/OR OBSTRUCTIONS TO VISIBILITY.

KSZ001>006-013>018-027>032-041>047-251000-
NORTHWEST KANSAS

CITY           SKY/WX    TMP DP  RH WIND       PRES   REMARKS
GOODLAND       CLEAR     10   5  80 SW5       30.08F
HAYS           CLEAR     15  11  83 NW9       30.18F
HILL CITY      CLEAR     14  10  84 W7        30.17F
RUSSELL        CLEAR     16  11  80 NW10      30.17F WCI   4
$$

KSZ061>065-074>080-084>089-251000-
SOUTHWEST KANSAS

CITY           SKY/WX    TMP DP  RH WIND       PRES   REMARKS
DODGE CITY     CLEAR     10   6  84 NW7       30.16F
ELKHART          N/A     19   6  57 NW1         N/A
GARDEN CITY    CLEAR     10   5  80 N7        30.15F
GREAT BEND     CLEAR     13   9  84 W8        30.19F
LIBERAL        CLEAR     18   7  62 N3        30.15F
$$

KSZ066>073-081>083-090>101-251000-
SOUTHEAST KANSAS

CITY           SKY/WX    TMP DP  RH WIND       PRES   REMARKS
CHANUTE        CLEAR     23  16  74 W9        30.15S
COFFEYVILLE    CLEAR     25  16  68 NW8       30.18F
HUTCHINSON     CLEAR     19  13  77 NW10      30.18S WCI   7
MEDICINE LODGE   N/A     16  12  84 W6        30.21S
NEWTON         CLEAR     20  15  81 W7        30.17S
PARSONS        CLEAR     23  16  74 NW6       30.18S
WICHITA INTL   CLEAR     20  15  81 NW8       30.18F
WICHITA JABRA  CLEAR     21  16  81 NW9       30.17S
WINFIELD       CLEAR     22  17  81 W6        30.20F
$$

KSZ007>012-019>026-033>040-048>060-102>105-251000-
NORTHEAST KANSAS

CITY           SKY/WX    TMP DP  RH WIND       PRES   REMARKS
CONCORDIA      CLEAR     19  13  77 W13       30.15S WCI   6
EMPORIA        CLEAR     21  17  84 W9        30.13S
LAWRENCE       CLEAR     19  17  92 NW6       30.11S
MANHATTAN      CLEAR     23  15  71 CALM      30.15S
OLATHE IND     CLEAR     22  17  81 W8        30.09F
OLATHE EXE     PTCLDY    23  19  85 NW8G18    30.07F
SALINA         CLEAR     21  14  74 W12       30.18S WCI   9
TOPEKA BILLARD CLEAR     24  18  77 W7        30.12S
TOPEKA FORBES  CLEAR     24  17  74 NW12      30.11S WCI  13
$$



USA.gov is the U.S. government's official web portal to all federal, state and local government web resources and services.